Location: Newark
(49.8348°N, 24.0280°E)
Time: 01:58:00
(UTC+00:00)

deb Explorer IX - Pass Details

Date: 04 February 2020
Orbit: 549 x 1099 km, 38.8° (Epoch: 20 February)

Event Time Altitude Azimuth Distance (km) Brightness Sun altitude
Rises 19:15:19 0° 257° (WSW) 3,468 ? -37.3°
Reaches altitude 10° 19:18:04 10° 246° (WSW) 2,616 ? -37.7°
Enters shadow 19:20:13 19° 231° (SW) 2,079 ? -38.1°
